Location: Greenwich
(51.4790°N, 0.0090°E)
Time: 13:23:55
(UTC+01:00)

Altair - Pass Details

Date: 19 June 2025
Orbit: 1502 x 1682 km, 47.2° (Epoch: 19 July)

Event Time Altitude Azimuth Distance (km) Brightness Sun altitude
Rises 02:34:15 0° 258° (WSW) 4,663 9.7 -12.4°
Reaches altitude 10° 02:37:15 10° 257° (WSW) 3,697 9.2 -12.2°
Maximum altitude 02:46:30 69° 176° (S) 1,656 7.5 -11.6°
Drops below altitude 10° 02:56:09 10° 96° (E) 3,835 9.9 -11.0°
Sets 02:59:19 0° 94° (E) 4,845 10.4 -10.7°
